Accueil
METAR-TAF:

METAR-TAF

Aéroports :

Watauga County Hospital Heliport

Boone, Caroline du Nord, États-Unis

latitude: 36-12N, longitude: 081-39W, altitude: 959 m

Observation

Le bulletin a été fait il y a 12 minutes, à 21:55 UTC
Vent 8 kt de nord-ouest avec des rafales jusqu'à 18 kt
Température 25°C
Humidité 44%
Pression 1021 hPa
Visibilité: 16.1 km

METAR: KTNB 022155Z AUTO 31008G18KT 10SM 25/12 A3016 RMK AO2 T02460120

Heure: 18:07 (22:07 UTC)


TAF: absent

Observations et prévisions météorologiques de plus de 4000 aéroports (messages METAR et TAF).

Les stations disponibles sont représentées par des disques jaunes et rouges sur la carte.

Passer la souris dessus pour voir le nom de la station.

Cliquer dessus pour voir les observations et prévisions météorologiques.

Pour changer de carte: cliquez sur les boutons verts avec une croix noire pour zoomer, sur le bouton vert avec un tiret pour effectuer un zoom arrière, ou sur les flèches vertes pour les cartes adjacentes.


METAR-TAF: